Current weather by "City, St" or "zip code"  
 

Current Conditions: Bloomington, Monroe County Airport, IN

Overcast


48.0 F

Last Updated on Oct 26 2020, 7:53 am EDT
Humidity: 83%
Wind Speed: N 3.5 mph
Barometer 30.12 in
Dewpoint: 43.0 F
Visibility: 7.00 mi
Precip: --
Heat Index: NA
Wind Chill: NA
Current conditions at:

Bloomington, Monroe County Airport, IN (KBMG)

Lat: 39.14306 Lon: 86.61667

Local Radar Image active severe weather and emergency alerts image image weather storm and storm spotter reports image weather observation monitoring service image
Local
Radar
Active
Alerts
Storm Reports Obs
Monitoring

Sign-up For Email & Text Message Weather Alert Notification Services



Advertise Here

Observation History for Bloomington, Monroe County Airport, IN


Time Wind
(mph)
Vis
(mi)
Weather Precip (in) Temperature (F) Relative
Humidity
Wind
Chill
(F)
Heat
Index
(F)
Pressure
Air Dwpt altimeter
(in)
sea level
(mb)
Rmks
7:53 am EDT N 3.5 7.00 Overcast -- 48.0 43.0 83% NA NA 30.12 1020.1
6:53 am EDT N 5.8 5.00 Fog/Mist -- 48.0 44.1 86% 45 NA 30.10 1019.4
5:53 am EDT N 5.8 4.00 Fog/Mist -- 48.0 44.1 86% 45 NA 30.09 1018.9
4:53 am EDT NW 3.5 8.00 Overcast -- 49.0 44.1 83% NA NA 30.08 1018.7
3:53 am EDT N 5.8 8.00 Overcast -- 48.0 43.0 83% 45 NA 30.08 1018.5
2:53 am EDT N 0.0 10.00 Overcast -- 49.0 43.0 80% NA NA 30.07 1018.4
1:53 am EDT N 4.6 10.00 Overcast -- 48.0 43.0 83% 46 NA 30.07 1018.3
12:53 am EDT N 3.5 10.00 Overcast Trace 48.0 43.0 83% NA NA 30.06 1017.8
11:53 pm EDT N 3.5 4.00 Light Rain Trace 49.0 43.0 80% NA NA 30.06 1017.9
10:53 pm EDT N 4.6 10.00 Overcast -- 49.0 42.1 77% 47 NA 30.06 1017.9
9:53 pm EDT N 5.8 10.00 Overcast -- 50.0 42.1 74% 48 NA 30.05 1017.7
8:53 pm EDT N 3.5 10.00 Overcast -- 50.0 42.1 74% NA NA 30.06 1018.0
7:53 pm EDT NE 4.6 10.00 Overcast Trace 51.0 42.1 71% 50 NA 30.04 1017.4
6:53 pm EDT NE 4.6 10.00 Overcast Trace 51.0 42.1 71% 50 NA 30.03 1017.0
5:53 pm EDT E 5.8 10.00 Overcast -- 53.0 39.9 61% 51 NA 30.04 1017.1
4:53 pm EDT NE 3.5 10.00 Overcast -- 54.0 39.0 57% NA NA 30.02 1016.5
3:53 pm EDT E 8.1 10.00 Overcast -- 54.0 39.9 59% 52 NA 30.02 1016.6
2:53 pm EDT NE 9.2 10.00 Overcast -- 54.0 39.9 59% 51 NA 30.03 1017.0
1:53 pm EDT E 9.2 10.00 Overcast -- 52.0 39.9 64% 49 NA 30.06 1017.9
12:53 pm EDT E 6.9 10.00 Overcast -- 51.0 39.9 66% 48 NA 30.09 1018.9
11:53 am EDT E 9.2 10.00 Overcast -- 50.0 39.9 68% 46 NA 30.09 1018.8
10:53 am EDT E 12.7 10.00 Overcast Trace 49.0 39.0 69% 44 NA 30.10 1019.3
9:53 am EDT E 12.7 10.00 Overcast -- 48.0 39.0 71% 43 NA 30.10 1019.4
8:53 am EDT NE 5.8 10.00 Light Rain Trace 47.0 37.9 71% 44 NA 30.10 1019.5

Regional Weather Observation


Indianapolis International Airport, IN (KIND)

Overcast
46.0 F

Terre Haute Regional Airport, IN (KHUF)

Overcast
47.0 F

Indianapolis, Eagle Creek Airpark, IN (KEYE)

Overcast
46.0 F

Robinson Municipal Airport, IL (KRSV)

Overcast
45.0 F

Edgar County Airport, IL (KPRG)

Overcast
44.0 F

Columbus / Bakalar, IN (KBAK)

Fog/Mist
45.0 F